STARLINK-37024, 68106

Orbit data source: Space-Track

STARLINK-37024, 68106 is a payload satellite owned by SpaceX/Seattle (US) in SSO that was launched on Sun, 08 Mar 2026 UTC via an FALCON 9 launch vehicle from the Air Force Western Test Range (AFWTR). Payload-class satellites include a variety of spacecraft equipped with specific instruments for various scientific and technological missions. These include communications satellites like Starlink; space stations such as the ISS; scientific satellites like the Hubble; Earth observation satellites from companies like Planet Labs, Umbra, and HawkEye 360; GPS; miniature CubeSats for education and research; and military/defense satellites.

Loading next visibility...
Identifier
68106, 2026-044F
Orbit
SSO
Country
Flag of USUS
Related business
Manufacturer
SpaceX/Seattle
Mission
Operational spacecraft
Bus & Motor
STARLINK V2MO, Unknown motor
Mass
575 kg wet, ~530 kg dry
Launch date (UTC)
2026-03-08 (2 months ago)
Launch vehicle
FALCON 9
Launch site
Air Force Western Test Range (AFWTR)
Object type
Payload
Rocket body
Debris
Shape & HBR
Unknown shape, 17.7 m
Radar Cross Section
RCS unknown

Expand to show TLE details & history
Last TLE update: 10 hours ago

TLE from 10 hours ago
0 STARLINK-37024
1 68106U 26044F   26119.47235044  .00037040  00000-0  11432-2 0  9992
2 68106  97.2831  80.4281 0002843 118.7974 241.3555 15.33465923  9364
Epoch: 2026-04-29T11:20Z
TLE epoch observation values (Epoch: 2026-04-29T11:20:11.078Z)
Latitude
0.00005°
Longitude
52.94912°
Altitude
469.526 km
Speed
7.631 km/s
True Right ascension
05h 21m 42s
True Declination
0° 00' 00"
Sunlit
Object was in daylight at epoch
Visualization orbit readout
Latitude
Unknown
Longitude
Unknown
Altitude
Unknown
Speed
Unknown
Apparent Right ascension
Unknown
Apparent Declination
Unknown
Sunlit
N/A
Visualization observer readout
Local Sidereal Time
04:41:03
Azimuth
Unknown
Elevation
Unknown
Doppler factor
Unknown
Orbital elements
Apogee altitude
464.368 km
Perigee altitude
460.479 km
Semi-major axis
6,840.561 km
Eccentricity
0.00028
Inclination
97.2831°
RAAN
80.4281°
Arg. of periapsis
118.7974°
True anomaly
241.32691°
Mean anomaly
241.3555°
Eccentric anomaly
241.34121°
Mean motion
3.83624 °/min
Orbital period
93.84 mins
BSTAR
0.0011432
Loading maneuver chart data...
Computing Atmospheric mass density...
Loading historical data...
Loading historical data...
Loading historical data...
Loading historical data...
Loading historical data...
Loading historical data...
Loading historical data...

Documentation

Showing up to 5 results
|